Simultaneous Nadir Overpasses (SNOs) Predictions

Prediction of SNOs over PacNW region [( 10.00, 139.50) to ( 22.70, 165.60)] between NOAA-19 and NPP Satellites:

Table of predicted SNOs over PacNW region for the next 30.0 days since TLE Epoch: 6/27/2014
Index Date (NOAA-19) Time (NOAA-19) NOAA-19 Lat,Lon Date (NPP) Time (NPP) NPP Lat,Lon Distance(km) Time Diff (sec)
1 06/28/2014 15:08:26 22.64, 164.63 06/28/2014 15:11:19 23.96, 158.98 595.30 173
2 06/29/2014 04:06:59 22.70, 142.50 06/29/2014 04:05:37 21.78, 137.97 477.54 82
3 07/11/2014 16:07:19 22.61, 150.05 07/11/2014 16:08:39 23.84, 144.71 562.30 80
4 07/12/2014 03:23:46 22.67, 153.46 07/12/2014 03:21:25 21.79, 149.10 458.57 141
5 07/24/2014 15:24:04 22.61, 161.01 07/24/2014 15:24:27 23.79, 155.84 544.30 23
6 07/25/2014 04:21:51 20.31, 139.51 07/25/2014 04:18:55 22.56, 134.68 559.59 176
